Location: Unspecified
(0.0000°N, 0.0000°E)
Time: 11:19:38
(UTC+00:00)

KAITUO 1B - Visible Passes

Search period start: 18 January 2018 00:00
Search period end: 28 January 2018 00:00
Orbit: 500 x 521 km, 97.5° (Epoch: 18 January)

Date Brightness Start Highest point End Pass type
(mag) Time Alt. Az. Time Alt. Az. Time Alt. Az.
20 Jan ? 05:41:41 10° NNE 05:45:12 47° E 05:48:46 10° S visible
21 Jan ? 05:25:50 10° NE 05:28:54 25° ESE 05:31:58 10° SSE visible
21 Jan ? 18:53:03 10° SW 18:54:29 12° WSW 18:55:57 10° W visible
22 Jan ? 05:10:35 10° ENE 05:12:35 14° ESE 05:14:34 10° SE visible
22 Jan ? 18:35:17 10° SSW 18:38:12 21° WSW 18:41:05 10° NW visible
26 Jan ? 05:37:30 10° NNE 05:40:57 40° ESE 05:44:25 10° S visible
27 Jan ? 05:21:45 10° NE 05:24:37 22° ESE 05:27:30 10° SSE visible
27 Jan ? 18:48:16 10° SW 18:50:15 14° WSW 18:52:12 10° WNW visible
